Location: Casco Volunteer Fire Department
(44.5576°N, 87.6146°W)
Time: 23:29:43
(UTC+00:00)

Cosmos 1190 Rocket - Visible Passes

Search period start: 18 April 2026 00:00
Search period end: 28 April 2026 00:00
Orbit: 752 x 776 km, 74.1° (Epoch: 18 April)

Date Brightness Start Highest point End Pass type
(mag) Time Alt. Az. Time Alt. Az. Time Alt. Az.
18 Apr 5.3 04:52:33 10° NNW 04:56:04 37° NNE 04:56:04 37° NNE visible
18 Apr 6.4 06:35:16 10° NW 06:36:14 14° NW 06:36:14 14° NW visible
19 Apr 5.4 04:14:29 10° N 04:18:23 29° NE 04:18:23 29° NE visible
19 Apr 5.9 05:56:20 10° NW 05:58:33 23° NW 05:58:33 23° NW visible
20 Apr 5.8 03:36:40 10° N 03:40:29 20° NE 03:40:43 20° ENE visible
20 Apr 5.3 05:17:43 10° NNW 05:20:53 36° NW 05:20:53 36° NW visible
21 Apr 6.2 02:59:24 10° NNE 03:01:39 13° NE 03:03:04 11° ENE visible
21 Apr 4.8 04:39:19 10° NNW 04:43:14 49° N 04:43:14 49° N visible
21 Apr 6.5 06:23:02 10° WNW 06:23:24 11° WNW 06:23:24 11° WNW visible
22 Apr 4.8 04:01:06 10° N 04:05:36 42° NE 04:05:36 42° NE visible
22 Apr 6.0 05:43:34 10° NW 05:45:46 20° WNW 05:45:46 20° WNW visible
23 Apr 5.3 03:23:05 10° N 03:27:35 27° ENE 03:27:59 27° ENE visible
23 Apr 5.3 05:04:44 10° NNW 05:08:10 34° WNW 05:08:10 34° WNW visible
24 Apr 5.8 02:45:21 10° N 02:48:51 18° NE 02:50:24 16° ENE visible
24 Apr 4.4 04:26:11 10° NNW 04:30:34 60° NW 04:30:34 60° NW visible
25 Apr 6.2 02:08:27 10° NNE 02:10:01 11° NE 02:11:34 10° ENE visible
25 Apr 4.1 03:47:50 10° NNW 03:53:00 65° ENE 03:53:00 65° ENE visible
25 Apr 6.2 05:31:10 10° NW 05:33:10 16° WNW 05:33:10 16° WNW visible
26 Apr 4.7 03:09:40 10° N 03:14:36 39° ENE 03:15:27 36° E visible
26 Apr 5.5 04:51:54 10° NW 04:55:37 28° W 04:55:37 28° W visible
27 Apr 5.4 02:31:42 10° N 02:35:59 24° NE 02:37:55 20° E visible
27 Apr 4.5 04:13:09 10° NNW 04:18:06 50° W 04:18:06 50° W visible
